TimeCST,TemperatureF,Dew PointF,Humidity,Sea Level PressureIn,VisibilityMPH,Wind Direction,Wind SpeedMPH,Gust SpeedMPH,PrecipitationIn,Events,Conditions,WindDirDegrees,DateUTC
1:52 AM,23.0,19.9,88,30.32,9.0,NNW,4.6,-,N/A,,Clear,330,2013-01-03 07:52:00
2:52 AM,21.0,19.0,92,30.35,8.0,South,3.5,-,N/A,,Clear,190,2013-01-03 08:52:00
3:52 AM,19.9,17.1,89,30.36,7.0,SSW,3.5,-,N/A,,Clear,210,2013-01-03 09:52:00
4:52 AM,21.0,18.0,88,30.38,6.0,South,3.5,-,N/A,,Clear,180,2013-01-03 10:52:00
5:52 AM,21.0,17.1,85,30.39,6.0,Calm,Calm,-,N/A,,Partly Cloudy,0,2013-01-03 11:52:00
6:52 AM,19.9,17.1,89,30.41,4.0,Calm,Calm,-,N/A,,Clear,0,2013-01-03 12:52:00
7:52 AM,18.0,15.1,88,30.43,5.0,Calm,Calm,-,N/A,,Clear,0,2013-01-03 13:52:00
8:52 AM,25.0,21.9,88,30.45,6.0,Calm,Calm,-,N/A,,Clear,0,2013-01-03 14:52:00
9:52 AM,30.9,26.1,82,30.47,10.0,NNW,3.5,-,N/A,,Clear,330,2013-01-03 15:52:00
10:52 AM,36.0,27.0,70,30.48,10.0,NNW,3.5,-,N/A,,Clear,330,2013-01-03 16:52:00
11:52 AM,39.9,27.0,60,30.46,10.0,Calm,Calm,-,N/A,,Clear,0,2013-01-03 17:52:00
12:52 PM,42.1,24.1,49,30.42,10.0,Variable,3.5,-,N/A,,Clear,0,2013-01-03 18:52:00
2:52 PM,42.1,26.1,53,30.41,10.0,NNW,10.4,-,N/A,,Overcast,330,2013-01-03 20:52:00
3:52 PM,39.9,27.0,60,30.43,10.0,NW,6.9,-,N/A,,Overcast,320,2013-01-03 21:52:00
4:52 PM,37.0,26.1,65,30.44,10.0,NNW,10.4,-,N/A,,Overcast,330,2013-01-03 22:52:00
5:52 PM,33.1,24.1,70,30.46,10.0,NNW,6.9,-,N/A,,Clear,330,2013-01-03 23:52:00
6:52 PM,30.0,23.0,75,30.48,10.0,NNW,5.8,-,N/A,,Clear,330,2013-01-04 00:52:00
7:52 PM,28.9,23.0,78,30.48,10.0,Calm,Calm,-,N/A,,Clear,0,2013-01-04 01:52:00
8:52 PM,27.0,23.0,85,30.48,10.0,NNW,4.6,-,N/A,,Clear,330,2013-01-04 02:52:00
9:52 PM,25.0,19.9,81,30.47,10.0,North,3.5,-,N/A,,Clear,350,2013-01-04 03:52:00
10:52 PM,24.1,19.9,84,30.47,10.0,Calm,Calm,-,N/A,,Clear,0,2013-01-04 04:52:00
11:52 PM,21.0,18.0,88,30.48,10.0,Calm,Calm,-,N/A,,Clear,0,2013-01-04 05:52:00